Regional Weather Roundup
Issued by NWS Cleveland, OH

Home | Current Version | Previous Version | Graphics & Text | Print | Product List | Glossary On
Versions: 1 2 3 4 5 6 7 8 9 10 11 12 13 14 15 16 17 18 19 20 21 22 23 24 25 26 27 28 29 30 31 32 33 34 35 36 37 38 39 40 41 42 43 44 45 46 47 48 49 50
479
ASUS41 KCLE 210810
RWRCLE
OHIO REGIONAL WEATHER ROUNDUP
NATIONAL WEATHER SERVICE CLEVELAND, OH
400 AM EDT SAT OCT 21 2017

NOTE: "FAIR" INDICATES FEW OR NO CLOUDS BELOW 12,000 FEET WITH NO
SIGNIFICANT WEATHER AND/OR OBSTRUCTIONS TO VISIBILITY.

OHZ001>008-015>018-024>027-034-035-043-044-210900-
   NORTHWEST OHIO

CITY           SKY/WX    TMP DP  RH WIND       PRES   REMARKS
DEFIANCE       PTCLDY    51  48  89 CALM      30.17R
FINDLAY        CLOUDY    53  45  74 SE5       30.17F
TOLEDO EXPRESS CLOUDY    50  48  93 SE3       30.16F
TOLEDO EXEC    CLEAR     52  44  74 S6        30.18S
LIMA           PTCLDY    54  50  86 S7        30.17F
$$

OHZ009>014-019>023-028>033-038-089-210900-
   NORTHEAST OHIO

CITY           SKY/WX    TMP DP  RH WIND       PRES   REMARKS
CLE-HOPKINS    CLEAR     52  32  46 S6        30.23S
CLE-LAKEFRONT  CLEAR     56  40  55 S6        30.20S
CUY CO. ARPT   NOT AVBL
LORAIN-ELYRIA  CLEAR     48  38  68 S6        30.21F
ASHTABULA      CLOUDY    49  39  68 S5        30.25R
AKRON-CANTON   CLEAR     53  39  59 SE5       30.23S
WOOSTER        CLOUDY    38  37  97 CALM      30.23S
MANSFIELD      CLEAR     49  41  74 S8        30.22S
YOUNGSTOWN     CLOUDY    44  39  82 SE5       30.24S
$$

OHZ042-051>053-060>062-070>072-077>081-210900-
  SOUTHWEST OHIO

CITY           SKY/WX    TMP DP  RH WIND       PRES   REMARKS
CINC-COVINGTON CLOUDY    55  52  89 S8        30.18S
CINC-LUNKEN    FOG       49  49 100 CALM      30.20S VSB<1/4
HAMILTON       PTCLDY    49  49 100 E3        30.19S FOG
DAYTON         CLOUDY    55  53  93 S7        30.19F
WRIGHT-PAT AFB CLOUDY    53  49  89 CALM      30.18F
DAYTON GENERAL CLOUDY    56  50  80 S6        30.18S
WILMINGTON     CLOUDY    53  51  93 SE5       30.20F
$$

OHZ036-037-039>041-045>050-054>059-063>069-073>076-082>088-210900-
  CENTRAL AND SOUTHEAST OHIO

CITY           SKY/WX    TMP DP  RH WIND       PRES   REMARKS
COLUMBUS       PTCLDY    49  44  83 CALM      30.21S
OSU AIRPORT    CLOUDY    49  45  86 CALM      30.21F
BOLTON FIELD   CLEAR     46  44  95 CALM      30.21F
RICKENBACK AFB CLEAR     47  44  90 CALM      30.21S
NEWARK         CLEAR     42  39  89 CALM      30.22F
MARION         CLOUDY    50  39  66 S7        30.21S
LANCASTER      PTCLDY    42  41  96 CALM      30.22F
ZANESVILLE     CLEAR     44  41  89 CALM      30.23S
NEW PHILLY     NOT AVBL
$$




USA.gov is the U.S. government's official web portal to all federal, state and local government web resources and services.